Eugene, OR

4:23 AM PDT on October 24, 2017 (GMT -0700)
Mahlon Sweet

Weather History for KEUG - December, 2013

Change the Weather History Date:

Tuesday, December 24, 2013

  Actual Average Record
Temperature  
Mean Temperature 35 °F 39 °F  
Max Temperature 39 °F 45 °F 60 °F (2005)
Min Temperature 31 °F 33 °F -4 °F (1924)
Degree Days  
Heating Degree Days 30 26  
Month to date heating degree days 779 605  
Since 1 July heating degree days 1955 1778  
Cooling Degree Days 0 0  
Month to date cooling degree days 0 0  
Year to date cooling degree days 411 239  
Moisture  
Dew Point 34 °F    
Average Humidity 96    
Maximum Humidity 100    
Minimum Humidity 92    
Precipitation  
Precipitation T in 0.23 in 2.42 in (1980)
Month to date precipitation 1.48 6.25  
Year to date precipitation 21.19 44.52  
Snow  
Snow 0.00 in - - ()
Month to date snowfall 0.0  
Since 1 July snowfall 0.0  
Snow Depth 0.00 in    
Sea Level Pressure  
Sea Level Pressure 30.55 in    
Wind  
Wind Speed 4 mph (North)    
Max Wind Speed 13 mph    
Max Gust Speed 14 mph    
Visibility 1 miles    
Events Fog , Snow    
T = Trace of Precipitation, MM = Missing Value Source: NWS Daily Summary

Daily Weather History Graph

Daily Weather History Graph

Search for Another Location

Airport or City:

Trip Planner

Search our weather history database for the weather conditions in past years. The results will help you decide how hot, cold, wet, or windy it might be!

Date:

Astronomy

Dec. 24, 2013 Rise Set
Actual Time 7:46 AM PST 4:39 PM PST
Civil Twilight 7:13 AM PST 5:12 PM PST
Nautical Twilight 6:36 AM PST 5:48 PM PST
Astronomical Twilight 6:01 AM PST 6:24 PM PST
Moon No Moon Rise 11:29 AM PST
Length of Visible Light 9h 59m
Length of Day
8h 52m
Waning Gibbous, 57% of the Moon is Illuminated
Dec 24
Waning Gibbous
Dec 25
Last Quarter
Jan 1
New
Jan 7
First Quarter
Jan 15
Full

Hourly Weather History & Observations

Time (PST) Temp. Windchill Dew Point Humidity Pressure Visibility Wind Dir Wind Speed Gust Speed Precip Events Conditions
12:04 AM 35.1 °F 30.1 °F 35.1 °F 100% 30.54 in 0.8 mi NNW 5.8 mph - N/A   Mist
12:28 AM 33.1 °F 27.7 °F 32.0 °F 96% 30.54 in 1.2 mi NW 5.8 mph - N/A   Scattered Clouds
12:35 AM 32.0 °F 27.5 °F 32.0 °F 100% 30.54 in 1.0 mi NW 4.6 mph - N/A   Mist
12:49 AM 32.0 °F 26.4 °F 30.2 °F 93% 30.54 in 0.8 mi WNW 5.8 mph - N/A   Mist
12:54 AM 32.0 °F 27.5 °F 30.9 °F 96% 30.55 in 0.8 mi West 4.6 mph - N/A   Mist
1:02 AM 32.0 °F - 30.9 °F 96% 30.54 in 1.0 mi Calm Calm - N/A   Mist
1:09 AM 32.0 °F - 30.9 °F 96% 30.54 in 0.5 mi Calm Calm - N/A Fog Fog
1:25 AM 30.9 °F 27.5 °F 30.0 °F 96% 30.55 in 0.2 mi ESE 3.5 mph - N/A Fog Light Freezing Fog
1:33 AM 30.9 °F - 30.0 °F 96% 30.55 in 0.2 mi Calm Calm - N/A Fog Light Freezing Fog
1:41 AM 30.9 °F - 30.9 °F 100% 30.55 in 0.2 mi Calm Calm - N/A Fog Light Freezing Fog
1:54 AM 32.0 °F - 32.0 °F 100% 30.56 in 0.2 mi Calm Calm - N/A Fog Fog
2:04 AM 32.0 °F - 30.9 °F 96% 30.56 in 0.2 mi Calm Calm - N/A Fog Fog
2:17 AM 30.9 °F 26.2 °F 30.0 °F 96% 30.56 in 0.5 mi SSW 4.6 mph - N/A Fog Light Freezing Fog
2:24 AM 32.0 °F 28.7 °F 30.9 °F 96% 30.56 in 0.5 mi SSW 3.5 mph - N/A Fog Fog
2:43 AM 30.9 °F - 30.9 °F 100% 30.57 in 0.2 mi Calm Calm - N/A Fog Light Freezing Fog
2:54 AM 32.0 °F - 30.9 °F 96% 30.58 in 0.2 mi Calm Calm - N/A Fog Fog
3:03 AM 32.0 °F - 32.0 °F 100% 30.58 in 0.2 mi Calm Calm - N/A Fog Fog
3:54 AM 34.0 °F 29.8 °F 33.1 °F 96% 30.59 in 0.2 mi East 4.6 mph - N/A Fog Fog
4:16 AM 35.1 °F - 34.0 °F 96% 30.59 in 0.5 mi Calm Calm - N/A Fog Fog
4:24 AM 34.0 °F - 34.0 °F 100% 30.59 in 0.5 mi Calm Calm - N/A Fog Fog
4:29 AM 34.0 °F 31.0 °F 34.0 °F 100% 30.60 in 0.2 mi North 3.5 mph - N/A Fog Fog
4:54 AM 34.0 °F - 34.0 °F 100% 30.60 in 0.2 mi Calm Calm - N/A Fog Fog
5:39 AM 34.0 °F 31.0 °F 34.0 °F 100% 30.59 in 0.5 mi West 3.5 mph - N/A Fog Fog
5:54 AM 34.0 °F - 34.0 °F 100% 30.60 in 0.2 mi Calm Calm - N/A Fog Fog
6:03 AM 34.0 °F - 34.0 °F 100% 30.59 in 0.2 mi Calm Calm - N/A Fog Fog
6:54 AM 34.0 °F 31.0 °F 34.0 °F 100% 30.60 in 0.1 mi North 3.5 mph - 0.00 in Fog , Snow Light Snow
6:57 AM 34.0 °F 31.0 °F 34.0 °F 100% 30.59 in 0.1 mi North 3.5 mph - 0.00 in Fog Fog
7:54 AM 35.1 °F 31.0 °F 35.1 °F 100% 30.60 in 0.1 mi NE 4.6 mph - 0.00 in Fog Fog
8:54 AM 36.0 °F - 35.1 °F 97% 30.59 in 0.1 mi Calm Calm - N/A Fog Fog
9:54 AM 36.0 °F 32.1 °F 35.1 °F 97% 30.59 in 0.1 mi North 4.6 mph - N/A Fog Fog
10:54 AM 36.0 °F 31.1 °F 35.1 °F 97% 30.60 in 0.1 mi NE 5.8 mph - N/A Fog Fog
11:32 AM 36.0 °F 29.0 °F 36.0 °F 100% 30.57 in 0.1 mi North 9.2 mph - N/A Fog Fog
11:54 AM 36.0 °F 29.6 °F 36.0 °F 100% 30.58 in 0.1 mi North 8.1 mph - N/A Fog Fog
12:15 PM 36.0 °F 30.3 °F 36.0 °F 100% 30.56 in 0.2 mi North 6.9 mph - N/A Fog Fog
12:34 PM 36.0 °F 30.3 °F 36.0 °F 100% 30.55 in 0.2 mi North 6.9 mph - N/A Fog Fog
12:54 PM 37.0 °F 31.0 °F 36.0 °F 96% 30.56 in 0.2 mi North 8.1 mph - N/A Fog Fog
1:54 PM 37.0 °F 30.4 °F 36.0 °F 96% 30.54 in 0.2 mi North 9.2 mph - N/A   Overcast
2:04 PM 37.0 °F 32.4 °F 37.0 °F 100% 30.53 in 1.0 mi NNE 5.8 mph - N/A   Overcast
2:54 PM 37.0 °F 31.0 °F 36.0 °F 96% 30.54 in 1.0 mi NE 8.1 mph - N/A   Overcast
3:19 PM 37.9 °F 32.7 °F 37.0 °F 97% 30.53 in 3.0 mi NE 6.9 mph - N/A   Overcast
3:54 PM 39.0 °F 34.0 °F 37.0 °F 93% 30.53 in 3.0 mi NNE 6.9 mph - N/A   Overcast
4:54 PM 37.9 °F 32.7 °F 37.0 °F 97% 30.53 in 3.0 mi North 6.9 mph - N/A   Overcast
5:54 PM 37.9 °F 32.1 °F 37.0 °F 97% 30.52 in 8.0 mi North 8.1 mph - N/A   Overcast
6:52 PM 37.4 °F 30.8 °F 35.6 °F 93% 30.51 in 2.5 mi NNE 9.2 mph - N/A   Overcast
6:54 PM 37.0 °F 29.8 °F 36.0 °F 96% 30.52 in 2.0 mi NE 10.4 mph - N/A   Overcast
7:04 PM 37.0 °F 31.6 °F 36.0 °F 96% 30.51 in 0.5 mi NNE 6.9 mph - N/A   Mist
7:54 PM 37.0 °F 33.3 °F 36.0 °F 96% 30.52 in 0.5 mi NE 4.6 mph - N/A Fog Fog
8:54 PM 37.0 °F - 36.0 °F 96% 30.51 in 0.5 mi Calm Calm - N/A Fog Fog
9:54 PM 37.0 °F - 37.0 °F 100% 30.50 in 1.0 mi Calm Calm - N/A   Overcast
10:20 PM 37.9 °F - 37.0 °F 97% 30.48 in 3.0 mi Calm Calm - N/A   Overcast
10:54 PM 37.0 °F 34.5 °F 36.0 °F 96% 30.49 in 2.0 mi ENE 3.5 mph - N/A   Overcast
11:36 PM 37.9 °F 35.5 °F 37.0 °F 97% 30.49 in 1.0 mi ENE 3.5 mph - N/A   Overcast
11:54 PM 37.0 °F 32.4 °F 36.0 °F 96% 30.49 in 1.0 mi North 5.8 mph - N/A   Overcast
11:59 PM 37.0 °F 31.0 °F 36.0 °F 96% 30.48 in 2.5 mi North 8.1 mph - N/A   Overcast